Location: Cormont
(50.5693°N, 1.7416°E)
Time: 23:03:31
(UTC+00:00)

Cosmos 1300 - Pass Details

Date: 21 October 2019
Orbit: 511 x 515 km, 82.5° (Epoch: 19 November)

Event Time Altitude Azimuth Distance (km) Brightness Sun altitude
Rises 17:48:32 0° 153° (SSE) 2,623 6.1 -10.0°
Reaches altitude 10° 17:51:01 10° 137° (SE) 1,741 5.0 -10.4°
Maximum altitude 17:53:54 21° 88° (E) 1,211 3.9 -10.9°
Drops below altitude 10° 17:56:48 10° 39° (NE) 1,752 5.0 -11.3°
Sets 17:59:19 0° 23° (NNE) 2,644 6.0 -11.7°
